STARLINK-32643, 62233

Orbit data source: Space-Track

STARLINK-32643, 62233 is a payload satellite owned by SpaceX/Seattle (US) in LEO that was launched on Thu, 05 Dec 2024 UTC via an FALCON 9 launch vehicle from the Air Force Western Test Range (AFWTR). Payload-class satellites include a variety of spacecraft equipped with specific instruments for various scientific and technological missions. These include communications satellites like Starlink; space stations such as the ISS; scientific satellites like the Hubble; Earth observation satellites from companies like Planet Labs, Umbra, and HawkEye 360; GPS; miniature CubeSats for education and research; and military/defense satellites.

Loading next visibility...
Identifier
62233, 2024-231R
Orbit
LEO
Country
Flag of USUS
Related business
Manufacturer
SpaceX/Seattle
Mission
Operational Commercial Communications
Bus & Motor
STARLINK V2M, Unknown motor
Mass
730 kg wet, ~700 kg dry
Launch date (UTC)
2024-12-05 (2 years ago)
Launch vehicle
FALCON 9
Launch site
Air Force Western Test Range (AFWTR)
Object type
Payload
Rocket body
Debris
Shape & HBR
Box + 2 Pan, 17.7 m
Radar Cross Section
33.884 m², Large (>1 m²)

Expand to show TLE details & history
Last TLE update: 9 hours ago

TLE from 9 hours ago
0 STARLINK-32643
1 62233U 24231R   26256.82422213  .00013477  00000-0  44497-3 0  9996
2 62233  53.1605  51.4875 0001262  77.2404 282.8739 15.31721737100763
Epoch: 2026-09-13T19:46Z
TLE epoch observation values (Epoch: 2026-09-13T19:46:52.792Z)
Latitude
0.00005°
Longitude
121.95424°
Altitude
471.383 km
Speed
7.632 km/s
True Right ascension
03h 25m 57s
True Declination
0° 00' 00"
Sunlit
Object was in full shadow at epoch
Visualization orbit readout
Latitude
Unknown
Longitude
Unknown
Altitude
Unknown
Speed
Unknown
Apparent Right ascension
Unknown
Apparent Declination
Unknown
Sunlit
N/A
Visualization observer readout
Local Sidereal Time
21:03:03
Azimuth
Unknown
Elevation
Unknown
Doppler factor
Unknown
Orbital elements
Apogee altitude
471.796 km
Perigee altitude
470.067 km
Semi-major axis
6,849.069 km
Eccentricity
0.00013
Inclination
53.1605°
RAAN
51.4875°
Arg. of periapsis
77.2404°
True anomaly
282.8598°
Mean anomaly
282.8739°
Eccentric anomaly
282.86685°
Mean motion
3.82909 °/min
Orbital period
94.02 mins
BSTAR
0.00044497
Loading maneuver chart data...
Computing Atmospheric mass density...
Loading historical data...
Loading historical data...
Loading historical data...
Loading historical data...
Loading historical data...
Loading historical data...
Loading historical data...

Documentation

Showing up to 5 results
|